TimeMST,TemperatureF,Dew PointF,Humidity,Sea Level PressureIn,VisibilityMPH,Wind Direction,Wind SpeedMPH,Gust SpeedMPH,PrecipitationIn,Events,Conditions,WindDirDegrees,DateUTC
12:55 AM,50.0,26.1,39,30.14,10.0,Calm,Calm,-,N/A,,Clear,0,2013-02-23 07:55:00
1:00 AM,-9999,-9999,N/A,-9999,-9999.0,North,-9999.0,-,N/A,,Unknown,0,2013-02-23 08:00:00
1:55 AM,46.9,26.1,44,30.13,10.0,Calm,Calm,-,N/A,,Clear,0,2013-02-23 08:55:00
2:00 AM,-9999,-9999,N/A,-9999,-9999.0,North,-9999.0,-,N/A,,Unknown,0,2013-02-23 09:00:00
2:55 AM,46.9,27.0,46,30.10,10.0,ENE,3.5,-,N/A,,Clear,70,2013-02-23 09:55:00
3:55 AM,46.9,25.0,42,30.08,10.0,ENE,3.5,-,N/A,,Clear,70,2013-02-23 10:55:00
4:55 AM,45.0,24.1,44,30.07,10.0,Calm,Calm,-,N/A,,Clear,0,2013-02-23 11:55:00
5:55 AM,43.0,23.0,45,30.07,10.0,Calm,Calm,-,N/A,,Clear,0,2013-02-23 12:55:00
6:55 AM,43.0,25.0,49,30.07,10.0,Calm,Calm,-,N/A,,Clear,0,2013-02-23 13:55:00
7:00 AM,-9999,-9999,N/A,-9999,-9999.0,North,-9999.0,-,N/A,,Unknown,0,2013-02-23 14:00:00
7:55 AM,46.0,25.0,44,30.07,10.0,Calm,Calm,-,N/A,,Clear,0,2013-02-23 14:55:00
8:55 AM,50.0,26.1,39,30.07,10.0,NE,5.8,-,N/A,,Partly Cloudy,50,2013-02-23 15:55:00
9:55 AM,55.9,25.0,30,30.05,10.0,Calm,Calm,-,N/A,,Partly Cloudy,0,2013-02-23 16:55:00
10:55 AM,61.0,26.1,26,30.05,10.0,Calm,Calm,-,N/A,,Partly Cloudy,0,2013-02-23 17:55:00
11:00 AM,-9999,-9999,N/A,-9999,-9999.0,North,-9999.0,-,N/A,,Unknown,0,2013-02-23 18:00:00
11:55 AM,64.9,23.0,20,30.04,10.0,SW,3.5,-,N/A,,Partly Cloudy,230,2013-02-23 18:55:00
12:55 PM,68.0,16.0,14,29.97,10.0,SSW,9.2,-,N/A,,Partly Cloudy,200,2013-02-23 19:55:00
1:55 PM,70.0,12.9,11,29.92,10.0,South,9.2,18.4,N/A,,Partly Cloudy,180,2013-02-23 20:55:00
2:55 PM,71.1,12.9,11,29.87,10.0,SW,10.4,17.3,N/A,,Partly Cloudy,220,2013-02-23 21:55:00
3:55 PM,72.0,14.0,11,29.84,10.0,SSW,11.5,17.3,N/A,,Clear,200,2013-02-23 22:55:00
4:55 PM,72.0,16.0,12,29.81,10.0,SSW,12.7,-,N/A,,Clear,200,2013-02-23 23:55:00
5:00 PM,-9999,-9999,N/A,-9999,-9999.0,North,-9999.0,-,N/A,,Unknown,0,2013-02-24 00:00:00
5:55 PM,70.0,19.0,14,29.80,10.0,SSW,12.7,-,N/A,,Clear,210,2013-02-24 00:55:00
6:55 PM,64.0,21.9,20,29.81,10.0,South,4.6,-,N/A,,Clear,170,2013-02-24 01:55:00
7:24 PM,-9999,-9999,N/A,-9999,-9999.0,North,-9999.0,-,N/A,,Unknown,0,2013-02-24 02:24:00
7:55 PM,60.1,23.0,24,29.82,10.0,SW,4.6,-,N/A,,Clear,230,2013-02-24 02:55:00
8:00 PM,-9999,-9999,N/A,-9999,-9999.0,North,-9999.0,-,N/A,,Unknown,0,2013-02-24 03:00:00
8:55 PM,59.0,21.9,24,29.83,10.0,Calm,Calm,-,N/A,,Clear,0,2013-02-24 03:55:00
9:55 PM,55.9,21.9,27,29.85,10.0,WSW,4.6,-,N/A,,Clear,250,2013-02-24 04:55:00
10:55 PM,55.0,25.0,31,29.87,10.0,Calm,Calm,-,N/A,,Clear,0,2013-02-24 05:55:00
11:55 PM,52.0,28.0,40,29.89,10.0,WSW,4.6,-,N/A,,Clear,240,2013-02-24 06:55:00